Location: Boley
(53.1150°N, 8.2269°W)
Time: 23:29:27
(UTC+00:00)

Cosmos 1842 - Pass Details

Date: 15 May 2026
Orbit: 395 x 397 km, 82.5° (Epoch: 11 June)

Event Time Altitude Azimuth Distance (km) Brightness Sun altitude
Exits shadow 23:31:14 50° 187° (S) 517 2.8 -16.7°
Maximum altitude 23:31:57 87° 98° (E) 404 2.5 -16.8°
Drops below altitude 10° 23:35:06 10° 12° (NNE) 1,452 6.5 -16.9°
Sets 23:37:08 0° 12° (NNE) 2,316 7.7 -17.0°
